Location: ????????
(54.8751°N, 38.5756°E)
Time: 04:14:59
(UTC+00:00)

CZ-4 R/B - Pass Details

Date: 14 April 2024
Orbit: 677 x 749 km, 98.6° (Epoch: 23 May)

Event Time Altitude Azimuth Distance (km) Brightness Sun altitude
Rises 01:21:50 0° 14° (NNE) 3,139 7.9 -9.0°
Reaches altitude 10° 01:24:09 10° 11° (N) 2,203 7.0 -8.8°
Maximum altitude 01:28:54 62° 292° (WNW) 794 3.9 -8.2°
Drops below altitude 10° 01:33:31 10° 212° (SSW) 2,145 5.8 -7.6°
Enters shadow 01:34:35 - 211° (SSW) 2,570 6.2 -7.4°
